Volver al catálogo

NEXTSAT-2

ActivoCienciaSSO
NORAD 56743·PAYLOAD·🇰🇷 South Korea

Lanzado May 25, 2023 desde Naro Space Center

Loading…

Próximos Pases (próximas 24 horas)

TLE

ActualizadoSource: Space-Track

Época: Sep 14, 2026, 14:29 UTC

1 56743U 23072A   26257.60350875  .00005365  00000-0  19326-3 0  9998
2 56743  97.5198  95.4710 0006922  69.3570 290.8412 15.28980690183254

Sigue NEXTSAT-2 en tiempo real con AllMySat

Download on the App Store